DLH1834 EDDM-LEMG

Flight info

Callsign DLH1834
Flight time N/A
Altitude 24000
Route MERSI4E MERSI Y100 UMTEX/N0454F330 Y100 TRA DCT LUTIX DCT BENOT DCT NEMOS DCT NINTU DCT MEBAK DCT REPSI DCT LERGA DCT MINSO/N0459F350 DCT NARAK DCT AGN DCT MAQAB DCT TIVLI DCT ELSAP DCT ZAR DCT EXEMU DCT PISUS DCT EDIMU DCT ADUXO DCT NUSGO DCT OBIBO DCT NASOS L27 BLN BLN1A
Aircraft A321/M-SDE3FGHIRWY/LB1

Departure

Time 2026-05-06 13:09
Airport Munich Airport (EDDM)

Arrival

Time N/A
Airport Málaga-Costa del Sol Airport (LEMG)
Time Latitude Longitude Altitude Speed Heading
2026-05-06 12:22 48.35657 11.79708 1486 ft 0 kts 83°
2026-05-06 12:27 48.35657 11.79707 1486 ft 0 kts 83°
2026-05-06 12:51 48.35657 11.79703 1485 ft 1 kts 83°
2026-05-06 12:51 48.35655 11.79687 1468 ft 2 kts 83°
2026-05-06 12:52 48.35654 11.79671 1481 ft 2 kts 83°
2026-05-06 12:52 48.35653 11.79655 1485 ft 2 kts 83°
2026-05-06 12:52 48.35652 11.79640 1474 ft 2 kts 83°
2026-05-06 12:52 48.35651 11.79624 1482 ft 2 kts 83°
2026-05-06 12:53 48.35649 11.79608 1479 ft 2 kts 83°
2026-05-06 12:53 48.35648 11.79593 1476 ft 2 kts 89°
2026-05-06 12:53 48.35648 11.79577 1476 ft 2 kts 105°
2026-05-06 12:53 48.35651 11.79561 1478 ft 2 kts 135°
2026-05-06 12:54 48.35660 11.79554 1478 ft 0 kts 174°
2026-05-06 12:54 48.35659 11.79554 1478 ft 0 kts 174°
2026-05-06 12:56 48.35657 11.79554 1478 ft 1 kts 173°
2026-05-06 12:56 48.35639 11.79558 1471 ft 3 kts 173°
2026-05-06 12:56 48.35611 11.79563 1477 ft 5 kts 173°
2026-05-06 12:56 48.35571 11.79570 1476 ft 7 kts 173°
2026-05-06 12:57 48.35517 11.79579 1474 ft 8 kts 173°
2026-05-06 12:57 48.35465 11.79545 1479 ft 9 kts 218°
2026-05-06 12:57 48.35411 11.79481 1482 ft 10 kts 216°
2026-05-06 12:57 48.35332 11.79475 1480 ft 13 kts 174°
2026-05-06 12:58 48.35241 11.79491 1478 ft 14 kts 173°
2026-05-06 12:58 48.35143 11.79508 1485 ft 14 kts 173°
2026-05-06 12:58 48.35041 11.79526 1485 ft 15 kts 173°
2026-05-06 12:58 48.34956 11.79540 1481 ft 6 kts 173°
2026-05-06 12:59 48.34911 11.79548 1472 ft 7 kts 173°
2026-05-06 12:59 48.34854 11.79558 1482 ft 10 kts 173°
2026-05-06 12:59 48.34791 11.79519 1475 ft 12 kts 245°
2026-05-06 12:59 48.34778 11.79386 1483 ft 14 kts 263°
2026-05-06 13:00 48.34766 11.79228 1475 ft 17 kts 263°
2026-05-06 13:00 48.34751 11.79037 1481 ft 19 kts 263°
2026-05-06 13:00 48.34735 11.78834 1481 ft 20 kts 263°
2026-05-06 13:00 48.34723 11.78670 1473 ft 15 kts 263°
2026-05-06 13:01 48.34710 11.78506 1485 ft 18 kts 263°
2026-05-06 13:01 48.34695 11.78316 1473 ft 18 kts 263°
2026-05-06 13:01 48.34680 11.78121 1479 ft 20 kts 263°
2026-05-06 13:01 48.34664 11.77913 1480 ft 20 kts 263°
2026-05-06 13:02 48.34648 11.77703 1485 ft 20 kts 263°
2026-05-06 13:02 48.34632 11.77491 1485 ft 21 kts 263°
2026-05-06 13:02 48.34615 11.77278 1485 ft 20 kts 263°
2026-05-06 13:02 48.34600 11.77071 1485 ft 18 kts 263°
2026-05-06 13:03 48.34585 11.76884 1481 ft 18 kts 263°
2026-05-06 13:03 48.34571 11.76694 1485 ft 18 kts 263°
2026-05-06 13:03 48.34555 11.76500 1485 ft 19 kts 263°
2026-05-06 13:03 48.34540 11.76302 1485 ft 19 kts 263°
2026-05-06 13:04 48.34525 11.76103 1485 ft 19 kts 263°
2026-05-06 13:04 48.34509 11.75901 1475 ft 20 kts 263°
2026-05-06 13:04 48.34494 11.75696 1473 ft 20 kts 263°
2026-05-06 13:04 48.34478 11.75489 1482 ft 20 kts 263°
2026-05-06 13:05 48.34464 11.75310 1475 ft 14 kts 263°
2026-05-06 13:05 48.34409 11.75218 1483 ft 14 kts 176°
2026-05-06 13:05 48.34355 11.75227 1479 ft 11 kts 173°
2026-05-06 13:05 48.34287 11.75239 1485 ft 9 kts 173°
2026-05-06 13:06 48.34223 11.75250 1484 ft 4 kts 173°
2026-05-06 13:06 48.34200 11.75255 1480 ft 0 kts 173°
2026-05-06 13:07 48.34199 11.75255 1481 ft 0 kts 173°
2026-05-06 13:07 48.34182 11.75258 1485 ft 6 kts 173°
2026-05-06 13:08 48.34131 11.75267 1481 ft 8 kts 173°
2026-05-06 13:08 48.34085 11.75309 1478 ft 8 kts 99°
2026-05-06 13:08 48.34089 11.75371 1485 ft 6 kts 83°
2026-05-06 13:08 48.34110 11.75645 1480 ft 59 kts 83°
2026-05-06 13:09 48.34184 11.76592 1486 ft 121 kts 83°
2026-05-06 13:09 48.34301 11.78119 1483 ft 171 kts 83°
2026-05-06 13:09 48.34435 11.79933 2100 ft 172 kts 83°
2026-05-06 13:09 48.34566 11.81737 2878 ft 174 kts 83°
2026-05-06 13:10 48.34702 11.83542 3559 ft 174 kts 82°
2026-05-06 13:10 48.34839 11.85354 4131 ft 176 kts 84°
2026-05-06 13:10 48.34985 11.87265 4453 ft 194 kts 84°
2026-05-06 13:10 48.35147 11.89390 4663 ft 216 kts 83°
2026-05-06 13:11 48.35327 11.91747 4818 ft 237 kts 84°
2026-05-06 13:11 48.35410 11.94255 5221 ft 244 kts 101°
2026-05-06 13:11 48.34683 11.96517 5690 ft 244 kts 136°
2026-05-06 13:11 48.33369 11.98152 6233 ft 246 kts 143°
2026-05-06 13:12 48.32014 11.99732 6736 ft 247 kts 144°
2026-05-06 13:12 48.30645 12.01298 7241 ft 248 kts 148°
2026-05-06 13:12 48.29083 12.02382 7732 ft 248 kts 166°
2026-05-06 13:12 48.27336 12.02584 7980 ft 262 kts 191°
2026-05-06 13:13 48.25642 12.01510 8447 ft 270 kts 218°
2026-05-06 13:13 48.24472 11.99306 9052 ft 276 kts 243°
2026-05-06 13:13 48.23740 11.96637 9682 ft 278 kts 245°
2026-05-06 13:13 48.23017 11.93952 10287 ft 279 kts 245°
2026-05-06 13:14 48.22288 11.91255 10714 ft 289 kts 245°
2026-05-06 13:14 48.21499 11.88349 10840 ft 308 kts 245°
2026-05-06 13:14 48.20665 11.85287 10971 ft 325 kts 245°
2026-05-06 13:14 48.19786 11.82065 11095 ft 342 kts 245°
2026-05-06 13:15 48.18870 11.78711 11405 ft 352 kts 245°
2026-05-06 13:15 48.17941 11.75305 11922 ft 355 kts 246°
2026-05-06 13:15 48.17007 11.71876 12480 ft 356 kts 245°
2026-05-06 13:15 48.16068 11.68438 13050 ft 357 kts 245°
2026-05-06 13:16 48.15138 11.65044 13598 ft 358 kts 245°
2026-05-06 13:16 48.14186 11.61587 14090 ft 360 kts 245°
2026-05-06 13:16 48.13226 11.58115 14568 ft 362 kts 245°
2026-05-06 13:16 48.12258 11.54614 15045 ft 365 kts 245°
2026-05-06 13:17 48.11285 11.51094 15517 ft 367 kts 245°
2026-05-06 13:17 48.10305 11.47553 15957 ft 369 kts 245°
2026-05-06 13:17 48.09319 11.43996 16420 ft 372 kts 245°
2026-05-06 13:17 48.08324 11.40412 16852 ft 374 kts 244°
2026-05-06 13:18 48.07322 11.36804 17286 ft 377 kts 244°
2026-05-06 13:18 48.06315 11.33180 17722 ft 379 kts 244°
2026-05-06 13:18 48.05303 11.29532 18133 ft 381 kts 244°
2026-05-06 13:18 48.04284 11.25871 18504 ft 383 kts 244°
2026-05-06 13:19 48.03256 11.22192 18881 ft 385 kts 244°
2026-05-06 13:19 48.02220 11.18497 19267 ft 386 kts 244°
2026-05-06 13:19 48.01179 11.14791 19652 ft 388 kts 244°
2026-05-06 13:19 48.00133 11.11072 20037 ft 389 kts 244°
2026-05-06 13:20 47.99080 11.07341 20421 ft 391 kts 244°
2026-05-06 13:20 47.98093 11.03552 20802 ft 395 kts 249°
2026-05-06 13:20 47.97372 10.99575 21171 ft 398 kts 251°
2026-05-06 13:20 47.96662 10.95574 21540 ft 400 kts 251°
2026-05-06 13:21 47.95960 10.91620 21897 ft 401 kts 251°
2026-05-06 13:21 47.95239 10.87578 22249 ft 403 kts 251°
2026-05-06 13:21 47.94511 10.83531 22594 ft 405 kts 251°
2026-05-06 13:21 47.93773 10.79461 22955 ft 408 kts 251°
2026-05-06 13:22 47.93029 10.75368 23347 ft 410 kts 251°
2026-05-06 13:22 47.92281 10.71258 23635 ft 412 kts 251°
2026-05-06 13:22 47.91663 10.67860 23877 ft 413 kts 251°
2026-05-06 13:22 47.90911 10.63723 24178 ft 414 kts 251°
2026-05-06 13:23 47.90155 10.59585 24499 ft 415 kts 251°
2026-05-06 13:23 47.89394 10.55430 24803 ft 416 kts 251°
2026-05-06 13:23 47.88630 10.51274 25124 ft 417 kts 251°
2026-05-06 13:23 47.87864 10.47106 25429 ft 418 kts 251°
2026-05-06 13:24 47.87094 10.42924 25721 ft 419 kts 251°
2026-05-06 13:24 47.86319 10.38728 25998 ft 420 kts 251°
2026-05-06 13:24 47.85560 10.34529 26257 ft 422 kts 253°
2026-05-06 13:24 47.85130 10.30178 26521 ft 429 kts 261°
2026-05-06 13:25 47.84947 10.25736 26766 ft 430 kts 262°
2026-05-06 13:25 47.84766 10.21284 27005 ft 431 kts 262°
2026-05-06 13:25 47.84581 10.16826 27241 ft 432 kts 262°
2026-05-06 13:25 47.84394 10.12357 27467 ft 433 kts 261°
2026-05-06 13:26 47.84206 10.07894 27783 ft 431 kts 261°
2026-05-06 13:26 47.84020 10.03443 28115 ft 430 kts 261°
2026-05-06 13:26 47.83842 9.99014 28455 ft 429 kts 262°
2026-05-06 13:26 47.83743 9.94580 28806 ft 428 kts 264°
2026-05-06 13:27 47.83726 9.90155 29134 ft 427 kts 264°
2026-05-06 13:27 47.83754 9.85734 29463 ft 426 kts 265°
2026-05-06 13:27 47.83791 9.81389 29793 ft 425 kts 265°
2026-05-06 13:27 47.83817 9.77005 30073 ft 423 kts 264°
2026-05-06 13:28 47.83822 9.72636 30334 ft 422 kts 264°
2026-05-06 13:28 47.83806 9.68277 30582 ft 421 kts 263°
2026-05-06 13:28 47.83770 9.63922 30767 ft 420 kts 261°
2026-05-06 13:28 47.83434 9.59640 30884 ft 414 kts 254°
2026-05-06 13:29 47.82910 9.55434 31122 ft 413 kts 254°
2026-05-06 13:29 47.82401 9.51230 31363 ft 413 kts 255°
2026-05-06 13:29 47.81900 9.47035 31613 ft 412 kts 255°
2026-05-06 13:29 47.81399 9.42839 31831 ft 411 kts 255°
2026-05-06 13:30 47.80897 9.38654 32064 ft 411 kts 255°
2026-05-06 13:30 47.80393 9.34475 32313 ft 410 kts 254°
2026-05-06 13:30 47.79888 9.30308 32596 ft 409 kts 254°
2026-05-06 13:30 47.79379 9.26143 32922 ft 409 kts 254°
2026-05-06 13:31 47.78876 9.22045 33218 ft 408 kts 254°
2026-05-06 13:31 47.78365 9.17894 33488 ft 408 kts 254°
2026-05-06 13:31 47.77852 9.13757 33739 ft 407 kts 254°
2026-05-06 13:31 47.77336 9.09616 33947 ft 407 kts 254°
2026-05-06 13:32 47.76822 9.05481 34153 ft 408 kts 254°
2026-05-06 13:32 47.76302 9.01331 34323 ft 409 kts 254°
2026-05-06 13:32 47.75778 8.97167 34452 ft 410 kts 254°
2026-05-06 13:32 47.75253 8.92998 34584 ft 411 kts 255°
2026-05-06 13:33 47.74728 8.88823 34734 ft 411 kts 255°
2026-05-06 13:33 47.73671 8.80450 34846 ft 415 kts 255°
2026-05-06 13:34 47.72600 8.72004 34855 ft 416 kts 255°
2026-05-06 13:34 47.71524 8.63548 34863 ft 417 kts 255°
2026-05-06 13:35 47.70433 8.55089 34870 ft 417 kts 254°
2026-05-06 13:35 47.69250 8.46680 34869 ft 414 kts 248°
2026-05-06 13:36 47.66775 8.39166 34879 ft 406 kts 232°
2026-05-06 13:36 47.63448 8.32331 34882 ft 407 kts 232°
2026-05-06 13:37 47.60161 8.25548 34885 ft 408 kts 232°
2026-05-06 13:37 47.56850 8.18730 34881 ft 408 kts 232°
2026-05-06 13:38 47.53524 8.11901 34883 ft 409 kts 231°
2026-05-06 13:38 47.50189 8.05077 34884 ft 410 kts 232°
2026-05-06 13:39 47.46847 7.98236 34882 ft 410 kts 231°
2026-05-06 13:39 47.43495 7.91415 34882 ft 410 kts 231°
2026-05-06 13:40 47.40131 7.84600 34887 ft 411 kts 231°
2026-05-06 13:40 47.36762 7.77781 34890 ft 412 kts 231°
2026-05-06 13:41 47.33406 7.70988 34896 ft 412 kts 231°
2026-05-06 13:41 47.30015 7.64157 34898 ft 413 kts 231°
2026-05-06 13:42 47.26621 7.57320 34904 ft 414 kts 231°
2026-05-06 13:42 47.23217 7.50465 34906 ft 415 kts 231°
2026-05-06 13:43 47.19789 7.43623 34906 ft 415 kts 231°
2026-05-06 13:43 47.16356 7.36796 34907 ft 416 kts 231°
2026-05-06 13:44 47.12817 7.30076 34908 ft 416 kts 229°
2026-05-06 13:44 47.09174 7.23478 34906 ft 416 kts 229°
2026-05-06 13:45 47.05527 7.16877 34905 ft 417 kts 229°
2026-05-06 13:45 47.00094 7.06900 34923 ft 418 kts 230°
2026-05-06 13:46 46.96459 7.00243 34930 ft 419 kts 229°
2026-05-06 13:46 46.92827 6.93640 34935 ft 419 kts 229°
2026-05-06 13:47 46.89168 6.87001 34931 ft 420 kts 229°
2026-05-06 13:47 46.85495 6.80360 34935 ft 420 kts 229°
2026-05-06 13:48 46.81822 6.73710 34937 ft 421 kts 229°
2026-05-06 13:48 46.78142 6.67067 34930 ft 421 kts 229°
2026-05-06 13:49 46.74448 6.60441 34925 ft 421 kts 229°
2026-05-06 13:49 46.70748 6.53815 34928 ft 421 kts 229°
2026-05-06 13:50 46.67039 6.47194 34931 ft 422 kts 229°
2026-05-06 13:50 46.63331 6.40572 34935 ft 423 kts 229°
2026-05-06 13:51 46.59639 6.33992 34933 ft 423 kts 229°
2026-05-06 13:51 46.55917 6.27381 34939 ft 423 kts 229°
2026-05-06 13:52 46.52184 6.20773 34949 ft 423 kts 229°
2026-05-06 13:52 46.48438 6.14168 34951 ft 424 kts 229°
2026-05-06 13:53 46.44687 6.07569 34956 ft 424 kts 229°
2026-05-06 13:53 46.40936 6.00965 34955 ft 424 kts 229°
2026-05-06 13:54 46.37179 5.94362 34955 ft 425 kts 229°
2026-05-06 13:54 46.33408 5.87765 34961 ft 425 kts 229°
2026-05-06 13:55 46.29624 5.81180 34957 ft 426 kts 229°
2026-05-06 13:55 46.25849 5.74610 34957 ft 427 kts 229°
2026-05-06 13:56 46.22060 5.68006 34954 ft 427 kts 229°
2026-05-06 13:56 46.18280 5.61454 34953 ft 427 kts 229°
2026-05-06 13:57 46.14500 5.54840 34951 ft 428 kts 233°
2026-05-06 13:57 46.11112 5.47794 34953 ft 428 kts 234°
2026-05-06 13:58 46.07734 5.40721 34952 ft 428 kts 234°
2026-05-06 13:58 46.04349 5.33668 34954 ft 429 kts 234°
2026-05-06 13:59 46.00941 5.26623 34957 ft 429 kts 234°
2026-05-06 13:59 45.97535 5.19581 34963 ft 429 kts 234°
2026-05-06 14:00 45.94704 5.13728 34965 ft 429 kts 234°
2026-05-06 14:00 45.91285 5.06691 34967 ft 429 kts 234°
2026-05-06 14:01 45.87311 4.98538 34969 ft 429 kts 234°
2026-05-06 14:01 45.83893 4.91530 34973 ft 429 kts 234°
2026-05-06 14:02 45.81022 4.85667 34974 ft 429 kts 234°
2026-05-06 14:02 45.77610 4.78729 34974 ft 428 kts 234°
2026-05-06 14:03 45.74182 4.71761 34968 ft 428 kts 234°
2026-05-06 14:03 45.70755 4.64806 34967 ft 427 kts 234°
2026-05-06 14:04 45.67326 4.57857 34946 ft 427 kts 234°
2026-05-06 14:04 45.63893 4.50923 34946 ft 427 kts 234°
2026-05-06 14:05 45.60453 4.44001 34942 ft 427 kts 234°
2026-05-06 14:05 45.57011 4.37080 34941 ft 427 kts 234°
2026-05-06 14:06 45.53587 4.30217 34930 ft 427 kts 234°
2026-05-06 14:06 45.50140 4.23315 34936 ft 428 kts 234°
2026-05-06 14:07 45.46682 4.16412 34936 ft 428 kts 234°
2026-05-06 14:07 45.43217 4.09518 34938 ft 428 kts 234°
2026-05-06 14:08 45.39738 4.02630 34932 ft 429 kts 234°
2026-05-06 14:08 45.36256 3.95756 34929 ft 429 kts 234°
2026-05-06 14:09 45.32770 3.88864 34923 ft 429 kts 234°
2026-05-06 14:09 45.29280 3.81991 34938 ft 429 kts 234°
2026-05-06 14:10 45.25779 3.75123 34939 ft 429 kts 234°
2026-05-06 14:10 45.22323 3.68214 34938 ft 429 kts 235°
2026-05-06 14:11 45.18952 3.61302 34932 ft 429 kts 235°
2026-05-06 14:11 45.15554 3.54357 34936 ft 429 kts 235°
2026-05-06 14:12 45.12130 3.47437 34934 ft 429 kts 234°
2026-05-06 14:12 45.08692 3.40538 34933 ft 429 kts 234°
2026-05-06 14:13 45.05262 3.33641 34930 ft 429 kts 234°
2026-05-06 14:13 45.01828 3.26750 34929 ft 429 kts 234°
2026-05-06 14:14 44.98392 3.19864 34925 ft 429 kts 234°
2026-05-06 14:14 44.94948 3.12989 34930 ft 429 kts 234°
2026-05-06 14:15 44.91491 3.06120 34940 ft 429 kts 234°
2026-05-06 14:15 44.88031 2.99259 34937 ft 429 kts 234°
2026-05-06 14:16 44.84569 2.92394 34944 ft 430 kts 235°
2026-05-06 14:16 44.81264 2.85425 34953 ft 430 kts 237°
2026-05-06 14:17 44.78046 2.78286 34956 ft 430 kts 238°
2026-05-06 14:17 44.74850 2.71245 34957 ft 430 kts 237°
2026-05-06 14:18 44.71597 2.64193 34961 ft 430 kts 237°
2026-05-06 14:18 44.68325 2.57166 34963 ft 429 kts 237°
2026-05-06 14:19 44.65055 2.50154 34976 ft 429 kts 237°
2026-05-06 14:19 44.61782 2.43139 34979 ft 429 kts 237°
2026-05-06 14:20 44.58511 2.36142 34979 ft 429 kts 237°
2026-05-06 14:20 44.55234 2.29143 34979 ft 429 kts 237°
2026-05-06 14:21 44.51951 2.22155 34977 ft 429 kts 237°
2026-05-06 14:21 44.48658 2.15179 34971 ft 429 kts 237°
2026-05-06 14:22 44.45388 2.08255 34964 ft 429 kts 237°
2026-05-06 14:22 44.42096 2.01290 34958 ft 430 kts 237°
2026-05-06 14:23 44.38785 1.94325 34961 ft 430 kts 237°
2026-05-06 14:23 44.35478 1.87365 34961 ft 430 kts 237°
2026-05-06 14:24 44.32169 1.80418 34962 ft 429 kts 237°
2026-05-06 14:24 44.28855 1.73482 34963 ft 429 kts 237°
2026-05-06 14:25 44.25613 1.66487 34958 ft 429 kts 238°
2026-05-06 14:25 44.22425 1.59455 34958 ft 429 kts 238°
2026-05-06 14:26 44.19214 1.52446 34958 ft 429 kts 238°
2026-05-06 14:26 44.15983 1.45451 34956 ft 429 kts 238°
2026-05-06 14:27 44.12743 1.38464 34958 ft 430 kts 238°
2026-05-06 14:27 44.09515 1.31526 34956 ft 430 kts 238°
2026-05-06 14:28 44.06260 1.24547 34959 ft 430 kts 238°
2026-05-06 14:28 44.03013 1.17566 34960 ft 430 kts 238°
2026-05-06 14:29 43.99762 1.10594 34961 ft 430 kts 238°
2026-05-06 14:29 43.96496 1.03642 34963 ft 430 kts 238°
2026-05-06 14:30 43.93228 0.96698 34964 ft 430 kts 238°
2026-05-06 14:30 43.89960 0.89756 34971 ft 430 kts 237°
2026-05-06 14:31 43.85906 0.83688 34967 ft 432 kts 223°
2026-05-06 14:31 43.81414 0.78158 34967 ft 432 kts 224°
2026-05-06 14:32 43.76932 0.72615 34972 ft 432 kts 224°
2026-05-06 14:32 43.72453 0.67081 34978 ft 432 kts 224°
2026-05-06 14:33 43.67968 0.61564 34978 ft 432 kts 224°
2026-05-06 14:33 43.63507 0.56107 34982 ft 431 kts 224°
2026-05-06 14:34 43.59016 0.50614 34984 ft 431 kts 224°
2026-05-06 14:34 43.54529 0.45132 34991 ft 431 kts 224°
2026-05-06 14:35 43.50042 0.39659 34996 ft 431 kts 224°
2026-05-06 14:35 43.45553 0.34206 34994 ft 430 kts 224°
2026-05-06 14:36 43.41063 0.28767 35001 ft 430 kts 224°
2026-05-06 14:36 43.36579 0.23330 35008 ft 430 kts 224°
2026-05-06 14:37 43.32092 0.17894 35015 ft 429 kts 224°
2026-05-06 14:37 43.27641 0.12526 35019 ft 429 kts 224°
2026-05-06 14:38 43.23156 0.07132 35020 ft 428 kts 223°
2026-05-06 14:38 43.18671 0.01758 35020 ft 428 kts 223°
2026-05-06 14:39 43.14189 -0.03610 35018 ft 428 kts 224°
2026-05-06 14:39 43.09704 -0.08983 35021 ft 428 kts 224°
2026-05-06 14:40 43.05222 -0.14336 35018 ft 428 kts 224°
2026-05-06 14:40 43.00741 -0.19675 35015 ft 427 kts 224°
2026-05-06 14:41 42.96258 -0.25006 35010 ft 427 kts 224°
2026-05-06 14:41 42.91772 -0.30327 35008 ft 427 kts 224°
2026-05-06 14:42 42.87290 -0.35632 35003 ft 426 kts 224°
2026-05-06 14:42 42.82839 -0.40894 35005 ft 426 kts 223°
2026-05-06 14:43 42.77762 -0.45115 35000 ft 434 kts 205°
2026-05-06 14:43 42.72126 -0.48065 34994 ft 434 kts 205°
2026-05-06 14:44 42.66493 -0.51028 34996 ft 434 kts 205°
2026-05-06 14:45 42.58058 -0.55465 34985 ft 433 kts 205°
2026-05-06 14:45 42.52435 -0.58410 34986 ft 433 kts 206°
2026-05-06 14:46 42.46811 -0.61358 34983 ft 433 kts 206°
2026-05-06 14:46 42.41192 -0.64293 34985 ft 433 kts 205°
2026-05-06 14:47 42.35568 -0.67214 34982 ft 433 kts 205°
2026-05-06 14:47 42.29952 -0.70129 34984 ft 432 kts 205°
2026-05-06 14:48 42.24373 -0.73024 34981 ft 432 kts 206°
2026-05-06 14:48 42.18760 -0.75933 34986 ft 432 kts 205°
2026-05-06 14:49 42.13149 -0.78832 34985 ft 432 kts 205°
2026-05-06 14:49 42.07542 -0.81719 34980 ft 431 kts 205°
2026-05-06 14:50 42.01933 -0.84598 34984 ft 431 kts 205°
2026-05-06 14:50 41.96332 -0.87482 34985 ft 431 kts 205°
2026-05-06 14:51 41.90728 -0.90355 34992 ft 431 kts 205°
2026-05-06 14:51 41.85166 -0.93200 34988 ft 431 kts 205°
2026-05-06 14:52 41.79565 -0.96062 34988 ft 431 kts 205°
2026-05-06 14:52 41.73965 -0.98912 34985 ft 430 kts 205°
2026-05-06 14:53 41.68373 -1.01761 34989 ft 430 kts 205°
2026-05-06 14:53 41.63170 -1.05480 34990 ft 422 kts 218°
2026-05-06 14:54 41.58347 -1.09937 34992 ft 422 kts 218°
2026-05-06 14:54 41.53508 -1.14379 34993 ft 422 kts 218°
2026-05-06 14:55 41.48667 -1.18805 34994 ft 422 kts 218°
2026-05-06 14:55 41.43828 -1.23228 34995 ft 422 kts 218°
2026-05-06 14:56 41.39016 -1.27622 34993 ft 421 kts 218°
2026-05-06 14:56 41.34177 -1.32025 34994 ft 421 kts 218°
2026-05-06 14:57 41.29334 -1.36427 34986 ft 422 kts 218°
2026-05-06 14:57 41.24497 -1.40824 34989 ft 421 kts 218°
2026-05-06 14:58 41.19657 -1.45218 34985 ft 421 kts 218°
2026-05-06 14:58 41.14820 -1.49601 34975 ft 421 kts 218°
2026-05-06 14:59 41.09984 -1.53973 34988 ft 421 kts 218°
2026-05-06 14:59 41.05148 -1.58342 34977 ft 421 kts 218°
2026-05-06 15:00 41.00337 -1.62667 34979 ft 421 kts 218°
2026-05-06 15:00 40.95495 -1.67016 34979 ft 421 kts 218°
2026-05-06 15:01 40.90649 -1.71365 34975 ft 421 kts 217°
2026-05-06 15:01 40.86622 -1.74969 34975 ft 421 kts 218°
2026-05-06 15:02 40.81777 -1.79303 34978 ft 421 kts 217°
2026-05-06 15:02 40.76927 -1.83633 34975 ft 420 kts 217°
2026-05-06 15:03 40.72082 -1.87948 34972 ft 420 kts 217°
2026-05-06 15:03 40.67244 -1.92253 34975 ft 420 kts 217°
2026-05-06 15:04 40.62405 -1.96537 34976 ft 419 kts 217°
2026-05-06 15:04 40.57566 -2.00815 34978 ft 419 kts 217°
2026-05-06 15:05 40.52735 -2.05093 34973 ft 418 kts 217°
2026-05-06 15:05 40.47905 -2.09356 34974 ft 418 kts 217°
2026-05-06 15:06 40.43072 -2.13607 34975 ft 418 kts 217°
2026-05-06 15:06 40.38246 -2.17849 34975 ft 417 kts 217°
2026-05-06 15:07 40.33458 -2.22067 34976 ft 417 kts 217°
2026-05-06 15:07 40.28638 -2.26300 34971 ft 417 kts 217°
2026-05-06 15:08 40.23818 -2.30510 34973 ft 416 kts 217°
2026-05-06 15:08 40.19006 -2.34711 34974 ft 416 kts 217°
2026-05-06 15:09 40.14196 -2.38906 34972 ft 415 kts 217°
2026-05-06 15:09 40.09399 -2.43084 34968 ft 415 kts 217°
2026-05-06 15:10 40.04630 -2.47221 34969 ft 414 kts 217°
2026-05-06 15:10 39.99834 -2.51377 34969 ft 413 kts 217°
2026-05-06 15:11 39.95043 -2.55518 34966 ft 413 kts 217°
2026-05-06 15:11 39.90261 -2.59652 34967 ft 412 kts 217°
2026-05-06 15:12 39.85482 -2.63773 34963 ft 412 kts 217°
2026-05-06 15:12 39.80715 -2.67891 34963 ft 411 kts 217°
2026-05-06 15:13 39.75950 -2.72000 34962 ft 410 kts 217°
2026-05-06 15:13 39.71190 -2.76080 34962 ft 410 kts 217°
2026-05-06 15:14 39.66437 -2.80146 34955 ft 409 kts 217°
2026-05-06 15:14 39.61696 -2.84201 34958 ft 408 kts 217°
2026-05-06 15:15 39.56993 -2.88218 34955 ft 407 kts 217°
2026-05-06 15:15 39.52262 -2.92254 34953 ft 407 kts 217°
2026-05-06 15:16 39.47539 -2.96285 34948 ft 406 kts 217°
2026-05-06 15:16 39.42811 -3.00300 34946 ft 406 kts 217°
2026-05-06 15:17 39.37847 -3.03794 34940 ft 411 kts 205°
2026-05-06 15:17 39.32477 -3.06400 34937 ft 411 kts 205°
2026-05-06 15:18 39.27119 -3.09001 34940 ft 411 kts 205°
2026-05-06 15:18 39.21770 -3.11599 34937 ft 411 kts 206°
2026-05-06 15:19 39.16428 -3.14190 34931 ft 410 kts 206°
2026-05-06 15:19 39.11093 -3.16775 34939 ft 409 kts 206°
2026-05-06 15:20 39.05767 -3.19351 34934 ft 409 kts 206°
2026-05-06 15:20 39.00442 -3.21912 34935 ft 408 kts 205°
2026-05-06 15:21 38.95122 -3.24472 34931 ft 408 kts 206°
2026-05-06 15:21 38.89810 -3.27038 34926 ft 407 kts 206°
2026-05-06 15:22 38.84506 -3.29596 34922 ft 407 kts 206°
2026-05-06 15:22 38.79256 -3.32116 34707 ft 404 kts 206°
2026-05-06 15:22 38.76624 -3.33374 34581 ft 403 kts 206°
2026-05-06 15:23 38.74001 -3.34627 34461 ft 402 kts 206°
2026-05-06 15:23 38.71348 -3.35894 34339 ft 401 kts 206°
2026-05-06 15:23 38.68735 -3.37142 34217 ft 400 kts 206°
2026-05-06 15:23 38.66159 -3.38369 34097 ft 400 kts 206°
2026-05-06 15:24 38.63557 -3.39608 33974 ft 399 kts 206°
2026-05-06 15:24 38.60960 -3.40842 33849 ft 398 kts 206°
2026-05-06 15:24 38.58365 -3.42073 33714 ft 398 kts 206°
2026-05-06 15:24 38.55771 -3.43305 33568 ft 398 kts 206°
2026-05-06 15:25 38.53176 -3.44537 33430 ft 399 kts 206°
2026-05-06 15:25 38.50573 -3.45774 33286 ft 399 kts 205°
2026-05-06 15:25 38.47971 -3.47010 33152 ft 400 kts 205°
2026-05-06 15:25 38.45358 -3.48250 32988 ft 400 kts 205°
2026-05-06 15:26 38.42746 -3.49485 32862 ft 400 kts 205°
2026-05-06 15:26 38.37516 -3.51953 32887 ft 401 kts 205°
2026-05-06 15:27 38.32325 -3.54412 32886 ft 401 kts 205°
2026-05-06 15:27 38.27097 -3.56892 32886 ft 401 kts 205°
2026-05-06 15:28 38.21860 -3.59364 32882 ft 401 kts 205°
2026-05-06 15:28 38.16816 -3.62233 32882 ft 394 kts 217°
2026-05-06 15:29 38.12874 -3.66926 32878 ft 388 kts 234°
2026-05-06 15:29 38.09837 -3.72590 32777 ft 389 kts 236°
2026-05-06 15:29 38.08313 -3.75436 32363 ft 390 kts 236°
2026-05-06 15:30 38.06785 -3.78284 31919 ft 391 kts 236°
2026-05-06 15:30 38.05249 -3.81142 31479 ft 393 kts 236°
2026-05-06 15:30 38.03703 -3.84018 31048 ft 396 kts 236°
2026-05-06 15:30 38.02149 -3.86913 30628 ft 399 kts 236°
2026-05-06 15:31 38.00583 -3.89824 30212 ft 401 kts 236°
2026-05-06 15:31 37.99005 -3.92750 29777 ft 403 kts 236°
2026-05-06 15:31 37.97434 -3.95655 29297 ft 406 kts 236°
2026-05-06 15:32 37.94219 -4.01591 28356 ft 411 kts 236°
2026-05-06 15:32 37.92527 -4.04527 27893 ft 414 kts 229°
2026-05-06 15:32 37.90331 -4.06886 27442 ft 417 kts 216°
2026-05-06 15:32 37.87866 -4.08914 26985 ft 417 kts 216°
2026-05-06 15:33 37.85457 -4.10872 26559 ft 417 kts 215°
2026-05-06 15:33 37.83018 -4.12846 26128 ft 416 kts 215°
2026-05-06 15:33 37.80588 -4.14811 25698 ft 415 kts 215°
2026-05-06 15:33 37.78158 -4.16781 25283 ft 414 kts 215°
2026-05-06 15:34 37.75737 -4.18743 24875 ft 413 kts 215°
2026-05-06 15:34 37.73319 -4.20706 24468 ft 412 kts 216°
2026-05-06 15:34 37.70911 -4.22666 24068 ft 412 kts 215°
2026-05-06 15:34 37.68503 -4.24620 23658 ft 411 kts 215°
2026-05-06 15:35 37.66097 -4.26568 23162 ft 410 kts 215°
2026-05-06 15:35 37.63701 -4.28502 22602 ft 408 kts 215°
2026-05-06 15:35 37.61316 -4.30422 22024 ft 405 kts 215°
2026-05-06 15:35 37.58949 -4.32326 21430 ft 402 kts 215°
2026-05-06 15:36 37.56597 -4.34220 20877 ft 399 kts 214°
2026-05-06 15:36 37.54267 -4.36095 20321 ft 396 kts 214°
2026-05-06 15:36 37.51951 -4.37962 19773 ft 394 kts 214°
2026-05-06 15:36 37.49647 -4.39816 19237 ft 391 kts 214°
2026-05-06 15:37 37.47360 -4.41651 18679 ft 389 kts 214°
2026-05-06 15:37 37.45085 -4.43477 18242 ft 387 kts 214°
2026-05-06 15:37 37.42819 -4.45296 17773 ft 386 kts 214°
2026-05-06 15:37 37.40567 -4.47102 17286 ft 384 kts 214°
2026-05-06 15:38 37.38331 -4.48889 16812 ft 376 kts 213°
2026-05-06 15:38 37.36140 -4.50637 16345 ft 369 kts 213°
2026-05-06 15:38 37.33994 -4.52348 15962 ft 361 kts 213°
2026-05-06 15:38 37.31922 -4.54001 15876 ft 344 kts 213°
2026-05-06 15:39 37.29956 -4.55569 15887 ft 325 kts 213°
2026-05-06 15:39 37.28069 -4.57001 15892 ft 310 kts 207°
2026-05-06 15:39 37.26050 -4.57898 15884 ft 309 kts 193°
2026-05-06 15:39 37.23906 -4.58160 15898 ft 311 kts 181°
2026-05-06 15:40 37.21768 -4.58137 15895 ft 311 kts 181°
2026-05-06 15:40 37.19605 -4.58115 15895 ft 311 kts 181°
2026-05-06 15:40 37.17430 -4.58095 15639 ft 312 kts 181°
2026-05-06 15:40 37.15269 -4.58075 15201 ft 311 kts 181°
2026-05-06 15:41 37.13110 -4.58223 14710 ft 317 kts 195°
2026-05-06 15:41 37.11103 -4.59341 14219 ft 310 kts 218°
2026-05-06 15:41 37.09709 -4.61292 13661 ft 298 kts 242°
2026-05-06 15:41 37.09135 -4.63739 12995 ft 291 kts 268°
2026-05-06 15:42 37.09463 -4.66203 12246 ft 289 kts 293°
2026-05-06 15:42 37.10628 -4.68228 11481 ft 289 kts 319°
2026-05-06 15:42 37.12400 -4.69397 10775 ft 290 kts 346°
2026-05-06 15:42 37.14383 -4.69615 10158 ft 284 kts 359°
2026-05-06 15:43 37.16337 -4.69721 9567 ft 281 kts 347°
2026-05-06 15:43 37.18139 -4.70652 9038 ft 283 kts 323°
2026-05-06 15:43 37.19501 -4.72412 8516 ft 283 kts 300°
2026-05-06 15:43 37.20186 -4.74713 8005 ft 284 kts 276°
2026-05-06 15:44 37.20077 -4.77141 7510 ft 286 kts 253°
2026-05-06 15:44 37.19185 -4.79323 7149 ft 278 kts 230°
2026-05-06 15:44 37.17737 -4.80833 7009 ft 267 kts 208°
2026-05-06 15:44 37.16013 -4.81519 7004 ft 256 kts 186°
2026-05-06 15:45 37.14274 -4.81424 6998 ft 245 kts 173°
2026-05-06 15:45 37.12628 -4.81141 7001 ft 235 kts 173°
2026-05-06 15:45 37.11010 -4.80862 7000 ft 234 kts 174°
2026-05-06 15:45 37.09393 -4.80582 7003 ft 234 kts 173°
2026-05-06 15:46 37.07781 -4.80301 7027 ft 234 kts 173°
2026-05-06 15:46 37.06164 -4.80081 7004 ft 233 kts 180°
2026-05-06 15:46 37.04542 -4.80066 7010 ft 234 kts 180°
2026-05-06 15:46 37.02896 -4.80049 7000 ft 233 kts 181°
2026-05-06 15:47 37.01292 -4.80031 7005 ft 234 kts 180°
2026-05-06 15:47 36.99664 -4.80011 7007 ft 234 kts 181°
2026-05-06 15:47 36.98038 -4.79991 6903 ft 234 kts 181°
2026-05-06 15:47 36.96412 -4.79973 6772 ft 233 kts 180°
2026-05-06 15:48 36.94790 -4.79957 6647 ft 233 kts 181°
2026-05-06 15:48 36.93169 -4.79818 6416 ft 234 kts 171°
2026-05-06 15:48 36.91608 -4.79254 6070 ft 233 kts 161°
2026-05-06 15:48 36.90082 -4.78577 5716 ft 233 kts 161°
2026-05-06 15:49 36.88556 -4.77911 5362 ft 231 kts 161°
2026-05-06 15:49 36.87047 -4.77246 5052 ft 229 kts 158°
2026-05-06 15:49 36.85643 -4.76349 4824 ft 223 kts 152°
2026-05-06 15:49 36.84290 -4.75431 4684 ft 221 kts 152°
2026-05-06 15:50 36.82945 -4.74523 4562 ft 219 kts 152°
2026-05-06 15:50 36.81604 -4.73621 4380 ft 220 kts 152°
2026-05-06 15:50 36.80245 -4.72707 3951 ft 223 kts 152°
2026-05-06 15:50 36.78869 -4.71780 3510 ft 227 kts 152°
2026-05-06 15:51 36.77576 -4.70648 3086 ft 229 kts 133°
2026-05-06 15:51 36.76747 -4.69022 3002 ft 213 kts 118°
2026-05-06 15:51 36.76096 -4.67462 2925 ft 195 kts 118°
2026-05-06 15:51 36.75486 -4.66003 2746 ft 184 kts 118°
2026-05-06 15:52 36.74900 -4.64603 2503 ft 180 kts 118°
2026-05-06 15:52 36.74325 -4.63229 2268 ft 178 kts 118°
2026-05-06 15:52 36.73779 -4.61926 2042 ft 162 kts 119°
2026-05-06 15:52 36.73276 -4.60725 1833 ft 152 kts 118°
2026-05-06 15:53 36.72795 -4.59576 1637 ft 148 kts 118°
2026-05-06 15:53 36.72320 -4.58444 1445 ft 146 kts 117°
2026-05-06 15:53 36.71852 -4.57328 1261 ft 145 kts 118°